This is the latest recevied weather packets stored in our database for station/object W6SNO-1. If no packets are shown the sender has not sent any weather packets the latest 10 day(s).
| Time | Temp. | Humidity | Pressure | Rain* | Wind** | Luminosity | Snow |
|---|---|---|---|---|---|---|---|
| 1778030997 | 15.56° C | 73% | 1016 hPa | 0 mm | - | 41 W/m² | - |
| 1778030694 | 15.56° C | 73% | 1015.9 hPa | 0 mm | - | 43 W/m² | - |
| 1778030391 | 15.56° C | 73% | 1016 hPa | 0 mm | - | 42 W/m² | - |
| 1778030088 | 15.56° C | 74% | 1016 hPa | 0 mm | - | 44 W/m² | - |
| 1778029785 | 15.56° C | 73% | 1015.8 hPa | 0 mm | - | 44 W/m² | - |
| 1778029484 | 15.56° C | 74% | 1016 hPa | 0 mm | - | 46 W/m² | - |
| 1778029179 | 15.56° C | 74% | 1016.1 hPa | 0 mm | - | 49 W/m² | - |
| 1778028878 | 15.56° C | 73% | 1015.9 hPa | 0 mm | - | 52 W/m² | - |
| 1778028572 | 15.56° C | 73% | 1015.8 hPa | 0 mm | - | 51 W/m² | - |
| 1778028271 | 15.56° C | 73% | 1016 hPa | 0 mm | - | 50 W/m² | - |
| 1778027966 | 15.56° C | 73% | 1016.2 hPa | 0 mm | - | 55 W/m² | - |
| 1778027663 | 15.56° C | 73% | 1016.1 hPa | 0 mm | - | 68 W/m² | - |
| 1778027360 | 15.56° C | 73% | 1016.1 hPa | 0 mm | - | 72 W/m² | - |
| 1778027056 | 15.56° C | 73% | 1016 hPa | 0 mm | - | 73 W/m² | - |
| 1778026751 | 15.56° C | 73% | 1015.8 hPa | 0 mm | - | 79 W/m² | - |
| 1778026449 | 15.56° C | 73% | 1015.8 hPa | 0 mm | - | 100 W/m² | - |
| 1778026146 | 16.11° C | 72% | 1015.6 hPa | 0 mm | - | 102 W/m² | - |
| 1778025843 | 16.11° C | 71% | 1015.7 hPa | 0 mm | - | 108 W/m² | - |
| 1778025540 | 15.56° C | 73% | 1015.5 hPa | 0 mm | - | 111 W/m² | - |
| 1778025238 | 16.11° C | 73% | 1015.6 hPa | 0 mm | - | 113 W/m² | - |
| 1778024934 | 16.11° C | 72% | 1015.8 hPa | 0 mm | - | 103 W/m² | - |
| 1778024632 | 15.56° C | 73% | 1015.6 hPa | 0 mm | - | 101 W/m² | - |
| 1778024328 | 15.56° C | 73% | 1015.6 hPa | 0 mm | - | 99 W/m² | - |
| 1778024027 | 15.56° C | 73% | 1015.8 hPa | 0 mm | - | 108 W/m² | - |
| 1778023724 | 15.56° C | 73% | 1015.8 hPa | 0 mm | - | 112 W/m² | - |
* Rain latest hour (hover to see other rain measurements)
** Current wind speed in m/s (hover to see current wind gust speed)